Location: Boiro
(42.6475°N, 8.8834°W)
Time: 04:00:17
(UTC+02:00)

UKube-1 - Pass Details

Date: 28 April 2024
Orbit: 583 x 591 km, 98.3° (Epoch: 23 May)

Event Time Altitude Azimuth Distance (km) Brightness Sun altitude
Rises 04:33:28 0° 360° (N) 2,834 ? -26.7°
Reaches altitude 10° 04:35:58 10° 345° (NNW) 1,926 ? -26.5°
Enters shadow 04:38:09 20° 317° (NW) 1,369 ? -26.2°
